Location: Unspecified
(0.0000°N, 0.0000°E)
Time: 23:46:57
(UTC+00:00)

S-56A Canister/Altair - Pass Details

Date: 09 October 2020
Orbit: 633 x 2499 km, 38.9° (Epoch: 28 October)

Event Time Altitude Azimuth Distance (km) Brightness Sun altitude
Rises 21:58:22 0° 274° (W) 4,821 12.0 -62.1°
Enters shadow 22:02:42 - 257° (WSW) 3,708 11.3 -63.1°
Reaches altitude 10° 22:04:35 10° 247° (WSW) 3,317 - -63.6°
Maximum altitude 22:07:22 12° 226° (SW) 2,930 - -64.2°
Drops below altitude 10° 22:09:51 10° 205° (SSW) 2,868 - -64.8°
Sets 22:14:14 0° 173° (S) 3,461 - -65.9°
